| time (UTC) | temp F | wind direction | speed MPH | gust MPH | rain 1hr in | rain 24hr in | rain mn in | humidity % | barometer mb |
| 20260831104333 | 57 | 358 | 4.0 | 5.0 | 0.00 | 0.00 | 0.00 | 91 | 1015.0 |
| 20260831103832 | 57 | 24 | 2.0 | 2.0 | 0.00 | 0.00 | 0.00 | 90 | 1014.9 |
| 20260831103328 | 57 | 336 | 0.0 | 0.0 | 0.00 | 0.00 | 0.00 | 90 | 1015.2 |
| 20260831102823 | 57 | 340 | 0.0 | 0.0 | 0.00 | 0.00 | 0.00 | 90 | 1015.0 |
| 20260831102318 | 57 | 346 | 0.0 | 0.0 | 0.00 | 0.00 | 0.00 | 90 | 1015.1 |
| 20260831101814 | 57 | 330 | 0.0 | 0.0 | 0.00 | 0.00 | 0.00 | 90 | 1014.8 |
| 20260831101309 | 57 | 1 | 0.0 | 0.0 | 0.00 | 0.00 | 0.00 | 90 | 1015.3 |
| 20260831100805 | 57 | 336 | 0.0 | 1.0 | 0.00 | 0.00 | 0.00 | 90 | 1015.6 |
| 20260831100301 | 57 | 329 | 1.0 | 1.0 | 0.00 | 0.00 | 0.00 | 89 | 1015.5 |
| 20260831095800 | 57 | 333 | 0.0 | 0.0 | 0.00 | 0.00 | 0.00 | 89 | 1015.6 |
| 20260831095254 | 57 | 337 | 0.0 | 0.0 | 0.00 | 0.00 | 0.00 | 89 | 1015.6 |
| 20260831094749 | 57 | 337 | 0.0 | 0.0 | 0.00 | 0.00 | 0.00 | 88 | 1015.5 |
| 20260831094244 | 57 | 342 | 1.0 | 2.0 | 0.00 | 0.00 | 0.00 | 88 | 1015.6 |
| 20260831093741 | 57 | 1 | 4.0 | 5.0 | 0.00 | 0.00 | 0.00 | 88 | 1015.5 |
| 20260831093240 | 57 | 5 | 1.0 | 2.0 | 0.00 | 0.00 | 0.00 | 88 | 1015.8 |
| 20260831092737 | 57 | 328 | 0.0 | 1.0 | 0.00 | 0.00 | 0.00 | 88 | 1015.9 |
| 20260831092233 | 57 | 323 | 1.0 | 2.0 | 0.00 | 0.00 | 0.00 | 88 | 1015.9 |
| 20260831091732 | 57 | 322 | 1.0 | 2.0 | 0.00 | 0.00 | 0.00 | 87 | 1015.8 |
| 20260831091228 | 57 | 305 | 0.0 | 0.0 | 0.00 | 0.00 | 0.00 | 87 | 1016.1 |
| 20260831090723 | 57 | 304 | 0.0 | 0.0 | 0.00 | 0.00 | 0.00 | 86 | 1015.9 |
| 20260831090220 | 57 | 305 | 0.0 | 0.0 | 0.00 | 0.00 | 0.00 | 86 | 1016.0 |
| 20260831085715 | 57 | 322 | 0.0 | 0.0 | 0.00 | 0.00 | 0.00 | 86 | 1015.8 |
| 20260831085210 | 58 | 321 | 0.0 | 0.0 | 0.00 | 0.00 | 0.00 | 85 | 1016.0 |
| 20260831084705 | 58 | 320 | 0.0 | 0.0 | 0.00 | 0.00 | 0.00 | 85 | 1016.0 |
| 20260831084201 | 57 | 321 | 0.0 | 1.0 | 0.00 | 0.00 | 0.00 | 85 | 1015.9 |
| 20260831083657 | 57 | 321 | 0.0 | 0.0 | 0.00 | 0.00 | 0.00 | 84 | 1015.8 |
| 20260831083152 | 57 | 322 | 0.0 | 0.0 | 0.00 | 0.00 | 0.00 | 84 | 1015.8 |
| 20260831082650 | 58 | 322 | 0.0 | 0.0 | 0.00 | 0.00 | 0.00 | 83 | 1016.3 |
| 20260831082146 | 58 | 342 | 0.0 | 0.0 | 0.00 | 0.00 | 0.00 | 83 | 1016.3 |
| 20260831081641 | 58 | 320 | 0.0 | 0.0 | 0.00 | 0.00 | 0.00 | 83 | 1016.3 |
| 20260831081137 | 58 | 322 | 0.0 | 0.0 | 0.00 | 0.00 | 0.00 | 83 | 1016.3 |
| 20260831080633 | 58 | 320 | 0.0 | 0.0 | 0.00 | 0.00 | 0.00 | 83 | 1016.6 |
| 20260831080127 | 58 | 331 | 0.0 | 0.0 | 0.00 | 0.00 | 0.00 | 83 | 1016.4 |
| 20260831075624 | 57 | 306 | 0.0 | 0.0 | 0.00 | 0.00 | 0.00 | 83 | 1016.6 |
| 20260831075119 | 57 | 306 | 0.0 | 0.0 | 0.00 | 0.00 | 0.00 | 83 | 1016.6 |
| 20260831074618 | 58 | 306 | 0.0 | 0.0 | 0.00 | 0.00 | 0.00 | 83 | 1016.4 |
| 20260831074113 | 58 | 306 | 0.0 | 0.0 | 0.00 | 0.00 | 0.00 | 82 | 1016.4 |
| 20260831073608 | 58 | 306 | 0.0 | 0.0 | 0.00 | 0.00 | 0.00 | 82 | 1016.3 |
| 20260831073107 | 58 | 306 | 0.0 | 1.0 | 0.00 | 0.00 | 0.00 | 82 | 1016.2 |
| 20260831072602 | 58 | 306 | 0.0 | 1.0 | 0.00 | 0.00 | 0.00 | 82 | 1016.4 |
| 20260831072059 | 58 | 307 | 0.0 | 0.0 | 0.00 | 0.00 | 0.00 | 81 | 1016.5 |
| 20260831071557 | 58 | 307 | 0.0 | 0.0 | 0.00 | 0.00 | 0.00 | 82 | 1016.5 |
| 20260831071053 | 59 | 307 | 0.0 | 0.0 | 0.00 | 0.00 | 0.00 | 81 | 1016.6 |
| 20260831070552 | 59 | 307 | 0.0 | 0.0 | 0.00 | 0.00 | 0.00 | 81 | 1016.8 |
| 20260831070047 | 59 | 308 | 0.0 | 0.0 | 0.00 | 0.00 | 0.00 | 81 | 1016.8 |
| 20260831065544 | 59 | 309 | 0.0 | 0.0 | 0.00 | 0.00 | 0.00 | 81 | 1016.9 |
| 20260831065039 | 59 | 310 | 0.0 | 0.0 | 0.00 | 0.00 | 0.00 | 81 | 1016.9 |
| 20260831064534 | 59 | 301 | 0.0 | 0.0 | 0.00 | 0.00 | 0.00 | 81 | 1016.8 |
| 20260831064030 | 59 | 300 | 0.0 | 0.0 | 0.00 | 0.00 | 0.00 | 80 | 1016.7 |
| 20260831063525 | 59 | 296 | 0.0 | 0.0 | 0.00 | 0.00 | 0.00 | 80 | 1016.8 |
| 20260831063020 | 60 | 281 | 0.0 | 0.0 | 0.00 | 0.00 | 0.00 | 79 | 1017.0 |
| 20260831062515 | 59 | 299 | 0.0 | 0.0 | 0.00 | 0.00 | 0.00 | 80 | 1016.8 |
| 20260831062014 | 59 | 270 | 1.0 | 1.0 | 0.00 | 0.00 | 0.00 | 80 | 1017.1 |
| 20260831061512 | 59 | 293 | 0.0 | 0.0 | 0.00 | 0.00 | 0.00 | 79 | 1016.7 |
| 20260831061009 | 60 | 287 | 0.0 | 0.0 | 0.00 | 0.00 | 0.00 | 79 | 1017.0 |
| 20260831060508 | 60 | 312 | 0.0 | 0.0 | 0.00 | 0.00 | 0.00 | 78 | 1016.9 |
| 20260831060004 | 60 | 316 | 0.0 | 0.0 | 0.00 | 0.00 | 0.00 | 78 | 1017.1 |
| 20260831055458 | 60 | 325 | 0.0 | 0.0 | 0.00 | 0.00 | 0.00 | 78 | 1016.9 |
| 20260831054954 | 60 | 317 | 0.0 | 0.0 | 0.00 | 0.00 | 0.00 | 77 | 1017.1 |
| 20260831054453 | 60 | 314 | 1.0 | 1.0 | 0.00 | 0.00 | 0.00 | 77 | 1017.1 |
| 20260831053953 | 60 | 338 | 0.0 | 0.0 | 0.00 | 0.00 | 0.00 | 77 | 1017.1 |
| 20260831053451 | 61 | 330 | 0.0 | 0.0 | 0.00 | 0.00 | 0.00 | 77 | 1017.2 |
| 20260831052946 | 60 | 318 | 3.0 | 3.0 | 0.00 | 0.00 | 0.00 | 77 | 1017.4 |
| 20260831052445 | 60 | 322 | 0.0 | 0.0 | 0.00 | 0.00 | 0.00 | 78 | 1017.5 |
| 20260831051944 | 60 | 344 | 1.0 | 1.0 | 0.00 | 0.00 | 0.00 | 78 | 1017.5 |
| 20260831051443 | 60 | 306 | 0.0 | 0.0 | 0.00 | 0.00 | 0.00 | 78 | 1017.8 |
| 20260831050937 | 60 | 320 | 0.0 | 0.0 | 0.00 | 0.00 | 0.00 | 78 | 1017.5 |
| 20260831050437 | 60 | 302 | 0.0 | 0.0 | 0.00 | 0.00 | 0.00 | 78 | 1017.7 |
| 20260831045936 | 60 | 284 | 0.0 | 0.0 | 0.00 | 0.00 | 0.00 | 77 | 1017.7 |
| 20260831045435 | 60 | 301 | 0.0 | 0.0 | 0.00 | 0.00 | 0.00 | 76 | 1017.5 |
| 20260831044930 | 61 | 300 | 0.0 | 0.0 | 0.00 | 0.00 | 0.00 | 76 | 1017.6 |
| 20260831044425 | 61 | 307 | 0.0 | 0.0 | 0.00 | 0.00 | 0.00 | 76 | 1017.7 |
| 20260831043921 | 61 | 341 | 0.0 | 0.0 | 0.00 | 0.00 | 0.00 | 76 | 1017.9 |
| 20260831043421 | 61 | 285 | 0.0 | 0.0 | 0.00 | 0.00 | 0.00 | 75 | 1017.8 |
| 20260831042916 | 61 | 318 | 0.0 | 0.0 | 0.00 | 0.00 | 0.00 | 75 | 1017.6 |
| 20260831042416 | 61 | 344 | 0.0 | 0.0 | 0.00 | 0.00 | 0.00 | 75 | 1017.7 |
| 20260831041911 | 61 | 325 | 1.0 | 1.0 | 0.00 | 0.00 | 0.00 | 75 | 1017.6 |
| 20260831041410 | 62 | 315 | 0.0 | 0.0 | 0.00 | 0.00 | 0.00 | 74 | 1017.7 |
| 20260831040905 | 62 | 351 | 1.0 | 2.0 | 0.00 | 0.00 | 0.00 | 74 | 1017.7 |
| 20260831040400 | 62 | 357 | 6.0 | 7.0 | 0.00 | 0.00 | 0.00 | 74 | 1017.6 |
| 20260831035858 | 62 | 345 | 1.0 | 1.0 | 0.00 | 0.00 | 0.00 | 74 | 1017.4 |
| 20260831035357 | 62 | 24 | 3.0 | 3.0 | 0.00 | 0.00 | 0.00 | 74 | 1017.7 |
| 20260831034851 | 62 | 350 | 0.0 | 0.0 | 0.00 | 0.00 | 0.00 | 74 | 1017.6 |
| 20260831034347 | 62 | 359 | 4.0 | 6.0 | 0.00 | 0.00 | 0.00 | 73 | 1017.5 |
| 20260831033842 | 62 | 15 | 5.0 | 6.0 | 0.00 | 0.00 | 0.00 | 73 | 1017.5 |
| 20260831033343 | 62 | 345 | 6.0 | 8.0 | 0.00 | 0.00 | 0.00 | 73 | 1017.7 |
| 20260831032838 | 62 | 11 | 6.0 | 7.0 | 0.00 | 0.00 | 0.00 | 72 | 1017.4 |
| 20260831032332 | 62 | 328 | 7.0 | 9.0 | 0.00 | 0.00 | 0.00 | 72 | 1017.4 |
| 20260831031827 | 62 | 7 | 6.0 | 7.0 | 0.00 | 0.00 | 0.00 | 72 | 1017.7 |
| 20260831031326 | 62 | 10 | 8.0 | 9.0 | 0.00 | 0.00 | 0.00 | 72 | 1017.9 |
| 20260831030821 | 62 | 345 | 4.0 | 6.0 | 0.00 | 0.00 | 0.00 | 71 | 1017.6 |
| 20260831030319 | 62 | 20 | 9.0 | 10.0 | 0.00 | 0.00 | 0.00 | 71 | 1017.4 |
| 20260831025814 | 63 | 350 | 0.0 | 0.0 | 0.00 | 0.00 | 0.00 | 70 | 1017.4 |
| 20260831025308 | 63 | 15 | 5.0 | 8.0 | 0.00 | 0.00 | 0.00 | 70 | 1017.6 |
| 20260831024804 | 63 | 32 | 5.0 | 7.0 | 0.00 | 0.00 | 0.00 | 70 | 1017.7 |
| 20260831024303 | 63 | 358 | 5.0 | 7.0 | 0.00 | 0.00 | 0.00 | 69 | 1017.6 |
| 20260831023802 | 64 | 345 | 5.0 | 7.0 | 0.00 | 0.00 | 0.00 | 68 | 1017.7 |
| 20260831023300 | 64 | 341 | 7.0 | 10.0 | 0.00 | 0.00 | 0.00 | 67 | 1017.4 |
| 20260831022756 | 64 | 317 | 0.0 | 0.0 | 0.00 | 0.00 | 0.00 | 66 | 1017.4 |
| 20260831022255 | 65 | 327 | 4.0 | 5.0 | 0.00 | 0.00 | 0.00 | 65 | 1017.5 |
| 20260831021750 | 65 | 5 | 3.0 | 6.0 | 0.00 | 0.00 | 0.00 | 64 | 1017.6 |
| 20260831021249 | 66 | 324 | 1.0 | 3.0 | 0.00 | 0.00 | 0.00 | 62 | 1017.8 |
| 20260831020746 | 67 | 326 | 0.0 | 0.0 | 0.00 | 0.00 | 0.00 | 61 | 1017.8 |
| 20260831020245 | 67 | 345 | 0.0 | 0.0 | 0.00 | 0.00 | 0.00 | 60 | 1017.7 |
| 20260831015741 | 67 | 319 | 0.0 | 0.0 | 0.00 | 0.00 | 0.00 | 59 | 1017.8 |
| 20260831015236 | 67 | 315 | 0.0 | 0.0 | 0.00 | 0.00 | 0.00 | 58 | 1017.6 |
| 20260831014731 | 68 | 337 | 3.0 | 3.0 | 0.00 | 0.00 | 0.00 | 58 | 1017.7 |
| 20260831014226 | 68 | 333 | 1.0 | 2.0 | 0.00 | 0.00 | 0.00 | 58 | 1017.8 |
| 20260831013722 | 68 | 346 | 1.0 | 3.0 | 0.00 | 0.00 | 0.00 | 58 | 1017.9 |
| 20260831013221 | 68 | 314 | 2.0 | 2.0 | 0.00 | 0.00 | 0.00 | 58 | 1017.8 |
| 20260831012716 | 68 | 328 | 4.0 | 5.0 | 0.00 | 0.00 | 0.00 | 57 | 1017.8 |
| 20260831012212 | 68 | 359 | 4.0 | 5.0 | 0.00 | 0.00 | 0.00 | 57 | 1018.0 |
| 20260831011710 | 69 | 355 | 4.0 | 6.0 | 0.00 | 0.00 | 0.00 | 56 | 1018.1 |
| 20260831011207 | 69 | 18 | 0.0 | 1.0 | 0.00 | 0.00 | 0.00 | 57 | 1018.2 |
| 20260831010702 | 69 | 306 | 0.0 | 0.0 | 0.00 | 0.00 | 0.00 | 57 | 1018.0 |
| 20260831010157 | 69 | 345 | 0.0 | 0.0 | 0.00 | 0.00 | 0.00 | 56 | 1018.1 |
| 20260831005657 | 69 | 306 | 1.0 | 2.0 | 0.00 | 0.00 | 0.00 | 56 | 1018.4 |
| 20260831005153 | 69 | 296 | 0.0 | 0.0 | 0.00 | 0.00 | 0.00 | 55 | 1018.2 |
| 20260831004648 | 69 | 249 | 2.0 | 2.0 | 0.00 | 0.00 | 0.00 | 54 | 1018.2 |
| 20260831004144 | 69 | 306 | 0.0 | 0.0 | 0.00 | 0.00 | 0.00 | 55 | 1018.3 |
| 20260831003640 | 69 | 307 | 0.0 | 1.0 | 0.00 | 0.00 | 0.00 | 54 | 1018.4 |
| 20260831003136 | 70 | 294 | 3.0 | 5.0 | 0.00 | 0.00 | 0.00 | 54 | 1018.6 |
| 20260831002634 | 69 | 256 | 0.0 | 0.0 | 0.00 | 0.00 | 0.00 | 55 | 1018.4 |
| 20260831002129 | 69 | 315 | 3.0 | 5.0 | 0.00 | 0.00 | 0.00 | 54 | 1018.4 |
| 20260831001625 | 70 | 297 | 2.0 | 2.0 | 0.00 | 0.00 | 0.00 | 53 | 1018.4 |
| 20260831001120 | 70 | 324 | 0.0 | 2.0 | 0.00 | 0.00 | 0.00 | 53 | 1018.5 |
| 20260831000618 | 70 | 273 | 0.0 | 0.0 | 0.00 | 0.00 | 0.00 | 55 | 1018.3 |
| 20260831000117 | 70 | 286 | 2.0 | 2.0 | 0.00 | 0.00 | 0.00 | 54 | 1018.4 |
| 20260830235616 | 72 | 328 | 1.0 | 2.0 | 0.00 | 0.00 | 0.00 | 53 | 1018.2 |
| 20260830235111 | 72 | 315 | 4.0 | 6.0 | 0.00 | 0.00 | 0.00 | 53 | 1018.4 |
| 20260830234606 | 72 | 293 | 4.0 | 5.0 | 0.00 | 0.00 | 0.00 | 52 | 1018.5 |
| 20260830234101 | 72 | 308 | 3.0 | 3.0 | 0.00 | 0.00 | 0.00 | 53 | 1018.6 |
| 20260830233556 | 74 | 276 | 5.0 | 7.0 | 0.00 | 0.00 | 0.00 | 51 | 1018.7 |
| 20260830233052 | 73 | 201 | 5.0 | 6.0 | 0.00 | 0.00 | 0.00 | 51 | 1018.6 |
| 20260830232548 | 74 | 294 | 0.0 | 1.0 | 0.00 | 0.00 | 0.00 | 52 | 1018.7 |
| 20260830232043 | 72 | 77 | 2.0 | 2.0 | 0.00 | 0.00 | 0.00 | 53 | 1018.7 |
| 20260830231539 | 71 | 333 | 1.0 | 1.0 | 0.00 | 0.00 | 0.00 | 55 | 1018.5 |
| 20260830231038 | 70 | 206 | 0.0 | 0.0 | 0.00 | 0.00 | 0.00 | 56 | 1018.5 |
| 20260830230534 | 69 | 175 | 2.0 | 2.0 | 0.00 | 0.00 | 0.00 | 58 | 1018.6 |
| 20260830230029 | 70 | 238 | 1.0 | 2.0 | 0.00 | 0.00 | 0.00 | 57 | 1018.6 |
| 20260830225524 | 71 | 256 | 0.0 | 1.0 | 0.00 | 0.00 | 0.00 | 54 | 1018.7 |
| 20260830225023 | 71 | 237 | 0.0 | 0.0 | 0.00 | 0.00 | 0.00 | 54 | 1018.7 |
| 20260830224521 | 70 | 317 | 0.0 | 0.0 | 0.00 | 0.00 | 0.00 | 56 | 1018.5 |
| 20260830224019 | 70 | 267 | 3.0 | 3.0 | 0.00 | 0.00 | 0.00 | 56 | 1019.0 |
| 20260830223516 | 70 | 244 | 1.0 | 3.0 | 0.00 | 0.00 | 0.00 | 58 | 1018.7 |
| 20260830223015 | 71 | 212 | 0.0 | 0.0 | 0.00 | 0.00 | 0.00 | 56 | 1019.1 |
| 20260830222510 | 71 | 227 | 5.0 | 6.0 | 0.00 | 0.00 | 0.00 | 57 | 1019.2 |
| 20260830222006 | 70 | 196 | 6.0 | 8.0 | 0.00 | 0.00 | 0.00 | 59 | 1019.3 |
| 20260830221502 | 70 | 201 | 2.0 | 2.0 | 0.00 | 0.00 | 0.00 | 57 | 1019.4 |
| 20260830220958 | 70 | 261 | 3.0 | 3.0 | 0.00 | 0.00 | 0.00 | 58 | 1019.5 |
| 20260830220457 | 70 | 261 | 9.0 | 10.0 | 0.00 | 0.00 | 0.00 | 58 | 1019.3 |
| 20260830215954 | 70 | 199 | 4.0 | 6.0 | 0.00 | 0.00 | 0.00 | 60 | 1019.3 |
| 20260830215450 | 69 | 238 | 1.0 | 2.0 | 0.00 | 0.00 | 0.00 | 61 | 1019.1 |
| 20260830214944 | 69 | 223 | 4.0 | 5.0 | 0.00 | 0.00 | 0.00 | 59 | 1019.2 |
| 20260830214440 | 70 | 186 | 8.0 | 10.0 | 0.00 | 0.00 | 0.00 | 60 | 1019.4 |
| 20260830213934 | 69 | 232 | 1.0 | 1.0 | 0.00 | 0.00 | 0.00 | 63 | 1019.2 |
| 20260830213429 | 68 | 223 | 0.0 | 0.0 | 0.00 | 0.00 | 0.00 | 63 | 1019.5 |
| 20260830212925 | 68 | 259 | 3.0 | 5.0 | 0.00 | 0.00 | 0.00 | 63 | 1019.6 |
| 20260830212420 | 68 | 200 | 0.0 | 1.0 | 0.00 | 0.00 | 0.00 | 64 | 1019.6 |
| 20260830211920 | 68 | 227 | 0.0 | 0.0 | 0.00 | 0.00 | 0.00 | 63 | 1019.5 |
| 20260830211414 | 68 | 290 | 4.0 | 6.0 | 0.00 | 0.00 | 0.00 | 63 | 1019.6 |
| 20260830210910 | 69 | 196 | 5.0 | 7.0 | 0.00 | 0.00 | 0.00 | 62 | 1019.7 |
| 20260830210410 | 69 | 301 | 3.0 | 3.0 | 0.00 | 0.00 | 0.00 | 64 | 1019.8 |
| 20260830205907 | 68 | 278 | 1.0 | 3.0 | 0.00 | 0.00 | 0.00 | 65 | 1019.6 |
| 20260830205406 | 68 | 249 | 3.0 | 5.0 | 0.00 | 0.00 | 0.00 | 64 | 1019.6 |
| 20260830204902 | 69 | 185 | 9.0 | 9.0 | 0.00 | 0.00 | 0.00 | 63 | 1020.0 |
| 20260830204401 | 68 | 256 | 5.0 | 7.0 | 0.00 | 0.00 | 0.00 | 65 | 1019.8 |
| 20260830203856 | 69 | 189 | 1.0 | 5.0 | 0.00 | 0.00 | 0.00 | 63 | 1019.8 |
| 20260830203353 | 69 | 248 | 5.0 | 6.0 | 0.00 | 0.00 | 0.00 | 63 | 1019.9 |
| 20260830202851 | 68 | 203 | 8.0 | 9.0 | 0.00 | 0.00 | 0.00 | 65 | 1019.9 |
| 20260830202347 | 68 | 201 | 0.0 | 0.0 | 0.00 | 0.00 | 0.00 | 64 | 1019.8 |
| 20260830201842 | 67 | 281 | 0.0 | 0.0 | 0.00 | 0.00 | 0.00 | 67 | 1020.3 |
| 20260830201336 | 66 | 185 | 3.0 | 6.0 | 0.00 | 0.00 | 0.00 | 70 | 1019.9 |
| 20260830200832 | 67 | 184 | 8.0 | 9.0 | 0.00 | 0.00 | 0.00 | 67 | 1020.0 |
| 20260830200331 | 66 | 282 | 2.0 | 3.0 | 0.00 | 0.00 | 0.00 | 70 | 1020.2 |
| 20260830195826 | 65 | 265 | 1.0 | 3.0 | 0.00 | 0.00 | 0.00 | 70 | 1020.3 |
| 20260830195321 | 66 | 191 | 5.0 | 7.0 | 0.00 | 0.00 | 0.00 | 68 | 1020.1 |
| 20260830194819 | 66 | 259 | 5.0 | 7.0 | 0.00 | 0.00 | 0.00 | 68 | 1020.1 |
| 20260830194318 | 67 | 263 | 3.0 | 3.0 | 0.00 | 0.00 | 0.00 | 69 | 1020.3 |
| 20260830193813 | 65 | 257 | 6.0 | 7.0 | 0.00 | 0.00 | 0.00 | 69 | 1020.3 |
| 20260830193307 | 65 | 252 | 5.0 | 8.0 | 0.00 | 0.00 | 0.00 | 70 | 1020.3 |
| 20260830192804 | 65 | 319 | 2.0 | 3.0 | 0.00 | 0.00 | 0.00 | 71 | 1020.3 |
| 20260830192305 | 64 | 219 | 1.0 | 2.0 | 0.00 | 0.00 | 0.00 | 72 | 1020.3 |
| 20260830191759 | 66 | 264 | 5.0 | 6.0 | 0.00 | 0.00 | 0.00 | 70 | 1020.3 |
| 20260830191258 | 65 | 235 | 6.0 | 9.0 | 0.00 | 0.00 | 0.00 | 71 | 1020.3 |
| 20260830190754 | 65 | 246 | 0.0 | 0.0 | 0.00 | 0.00 | 0.00 | 72 | 1020.3 |
| 20260830190249 | 64 | 201 | 4.0 | 5.0 | 0.00 | 0.00 | 0.00 | 72 | 1020.4 |
| 20260830185747 | 65 | 245 | 6.0 | 7.0 | 0.00 | 0.00 | 0.00 | 70 | 1020.4 |
| 20260830185244 | 64 | 253 | 2.0 | 2.0 | 0.00 | 0.00 | 0.00 | 72 | 1020.5 |
| 20260830184743 | 63 | 232 | 5.0 | 6.0 | 0.00 | 0.00 | 0.00 | 73 | 1020.6 |
| 20260830184242 | 63 | 245 | 6.0 | 8.0 | 0.00 | 0.00 | 0.00 | 74 | 1020.5 |
| 20260830183738 | 63 | 260 | 5.0 | 6.0 | 0.00 | 0.00 | 0.00 | 73 | 1020.5 |
| 20260830183232 | 63 | 259 | 3.0 | 5.0 | 0.00 | 0.00 | 0.00 | 74 | 1020.4 |
| 20260830182727 | 64 | 255 | 5.0 | 6.0 | 0.00 | 0.00 | 0.00 | 73 | 1020.6 |
| 20260830182224 | 64 | 189 | 5.0 | 6.0 | 0.00 | 0.00 | 0.00 | 72 | 1020.3 |
| 20260830181720 | 65 | 237 | 3.0 | 3.0 | 0.00 | 0.00 | 0.00 | 71 | 1020.2 |
| 20260830181215 | 65 | 151 | 3.0 | 3.0 | 0.00 | 0.00 | 0.00 | 69 | 1020.3 |
| 20260830180713 | 63 | 191 | 3.0 | 3.0 | 0.00 | 0.00 | 0.00 | 73 | 1020.4 |
| 20260830180208 | 63 | 327 | 1.0 | 1.0 | 0.00 | 0.00 | 0.00 | 73 | 1020.2 |
| 20260830175708 | 63 | 112 | 1.0 | 2.0 | 0.00 | 0.00 | 0.00 | 73 | 1020.3 |
| 20260830175203 | 63 | 219 | 1.0 | 2.0 | 0.00 | 0.00 | 0.00 | 76 | 1020.1 |
| 20260830174658 | 62 | 304 | 0.0 | 1.0 | 0.00 | 0.00 | 0.00 | 76 | 1020.3 |
| 20260830174154 | 62 | 296 | 0.0 | 0.0 | 0.00 | 0.00 | 0.00 | 78 | 1020.4 |
| 20260830173648 | 60 | 262 | 1.0 | 2.0 | 0.00 | 0.00 | 0.00 | 79 | 1020.2 |
| 20260830173143 | 60 | 302 | 4.0 | 5.0 | 0.00 | 0.00 | 0.00 | 80 | 1020.5 |
| 20260830172640 | 60 | 233 | 4.0 | 5.0 | 0.00 | 0.00 | 0.00 | 80 | 1020.6 |
| 20260830172136 | 60 | 267 | 2.0 | 2.0 | 0.00 | 0.00 | 0.00 | 79 | 1020.5 |
| 20260830171636 | 60 | 258 | 2.0 | 2.0 | 0.00 | 0.00 | 0.00 | 79 | 1020.4 |
| 20260830171131 | 61 | 256 | 4.0 | 6.0 | 0.00 | 0.00 | 0.00 | 78 | 1020.4 |
| 20260830170626 | 61 | 266 | 1.0 | 1.0 | 0.00 | 0.00 | 0.00 | 79 | 1020.4 |
| 20260830170125 | 61 | 246 | 2.0 | 2.0 | 0.00 | 0.00 | 0.00 | 78 | 1020.5 |
| 20260830165619 | 62 | 260 | 3.0 | 3.0 | 0.00 | 0.00 | 0.00 | 76 | 1020.2 |
| 20260830165115 | 61 | 274 | 0.0 | 0.0 | 0.00 | 0.00 | 0.00 | 78 | 1020.5 |
| 20260830164611 | 61 | 250 | 1.0 | 1.0 | 0.00 | 0.00 | 0.00 | 78 | 1020.3 |
| 20260830164107 | 61 | 248 | 3.0 | 5.0 | 0.00 | 0.00 | 0.00 | 78 | 1020.1 |
| 20260830163604 | 60 | 206 | 4.0 | 5.0 | 0.00 | 0.00 | 0.00 | 78 | 1020.4 |
| 20260830163103 | 61 | 217 | 3.0 | 3.0 | 0.00 | 0.00 | 0.00 | 76 | 1020.5 |
| 20260830162559 | 60 | 223 | 3.0 | 5.0 | 0.00 | 0.00 | 0.00 | 80 | 1020.5 |
| 20260830162054 | 60 | 203 | 3.0 | 3.0 | 0.00 | 0.00 | 0.00 | 79 | 1020.4 |
| 20260830161548 | 59 | 202 | 5.0 | 6.0 | 0.00 | 0.00 | 0.00 | 79 | 1020.5 |
| 20260830161044 | 60 | 221 | 3.0 | 3.0 | 0.00 | 0.00 | 0.00 | 79 | 1020.3 |
| 20260830160540 | 60 | 205 | 1.0 | 2.0 | 0.00 | 0.00 | 0.00 | 79 | 1020.4 |
| 20260830160035 | 60 | 212 | 4.0 | 5.0 | 0.00 | 0.00 | 0.00 | 79 | 1020.3 |
| 20260830155531 | 59 | 216 | 5.0 | 6.0 | 0.00 | 0.00 | 0.00 | 80 | 1020.4 |
| 20260830155026 | 59 | 198 | 6.0 | 7.0 | 0.00 | 0.00 | 0.00 | 80 | 1020.6 |
| 20260830154521 | 60 | 194 | 3.0 | 3.0 | 0.00 | 0.00 | 0.00 | 79 | 1020.3 |
| 20260830154017 | 59 | 194 | 4.0 | 5.0 | 0.00 | 0.00 | 0.00 | 81 | 1020.3 |
| 20260830153514 | 59 | 164 | 4.0 | 5.0 | 0.00 | 0.00 | 0.00 | 80 | 1020.3 |
| 20260830153013 | 60 | 158 | 5.0 | 6.0 | 0.00 | 0.00 | 0.00 | 79 | 1020.3 |
| 20260830152508 | 59 | 209 | 3.0 | 3.0 | 0.00 | 0.00 | 0.00 | 80 | 1020.2 |
| 20260830152007 | 59 | 182 | 5.0 | 6.0 | 0.00 | 0.00 | 0.00 | 81 | 1020.3 |
| 20260830151501 | 59 | 101 | 7.0 | 9.0 | 0.00 | 0.00 | 0.00 | 81 | 1020.3 |
| 20260830150956 | 59 | 203 | 3.0 | 5.0 | 0.00 | 0.00 | 0.00 | 81 | 1020.3 |
| 20260830150455 | 58 | 169 | 5.0 | 7.0 | 0.00 | 0.00 | 0.00 | 81 | 1020.2 |
| 20260830145950 | 58 | 193 | 5.0 | 7.0 | 0.00 | 0.00 | 0.00 | 82 | 1020.5 |
| 20260830145444 | 58 | 201 | 4.0 | 5.0 | 0.00 | 0.00 | 0.00 | 81 | 1020.2 |
| 20260830144940 | 58 | 170 | 2.0 | 2.0 | 0.00 | 0.00 | 0.00 | 82 | 1020.4 |
| 20260830144436 | 58 | 183 | 7.0 | 8.0 | 0.00 | 0.00 | 0.00 | 83 | 1019.9 |
| 20260830143931 | 58 | 185 | 3.0 | 3.0 | 0.00 | 0.00 | 0.00 | 83 | 1020.4 |
| 20260830143426 | 58 | 155 | 3.0 | 5.0 | 0.00 | 0.00 | 0.00 | 83 | 1020.4 |
| 20260830142925 | 57 | 152 | 4.0 | 5.0 | 0.00 | 0.00 | 0.00 | 84 | 1020.2 |
| 20260830142420 | 57 | 182 | 8.0 | 9.0 | 0.00 | 0.00 | 0.00 | 84 | 1020.4 |
| 20260830141914 | 57 | 143 | 5.0 | 6.0 | 0.00 | 0.00 | 0.00 | 84 | 1020.0 |
| 20260830141410 | 57 | 108 | 5.0 | 6.0 | 0.00 | 0.00 | 0.00 | 84 | 1020.1 |
| 20260830140905 | 57 | 143 | 3.0 | 5.0 | 0.00 | 0.00 | 0.00 | 84 | 1019.9 |
| 20260830140400 | 57 | 179 | 3.0 | 3.0 | 0.00 | 0.00 | 0.00 | 85 | 1020.1 |
| 20260830135859 | 57 | 207 | 1.0 | 1.0 | 0.00 | 0.00 | 0.00 | 85 | 1020.0 |
| 20260830135354 | 57 | 204 | 4.0 | 7.0 | 0.00 | 0.00 | 0.00 | 85 | 1019.9 |
| 20260830134850 | 57 | 166 | 2.0 | 3.0 | 0.00 | 0.00 | 0.00 | 85 | 1020.0 |
| 20260830134345 | 57 | 206 | 5.0 | 6.0 | 0.00 | 0.00 | 0.00 | 85 | 1019.9 |
| 20260830133841 | 57 | 97 | 4.0 | 5.0 | 0.00 | 0.00 | 0.00 | 85 | 1020.0 |
| 20260830133337 | 57 | 171 | 2.0 | 3.0 | 0.00 | 0.00 | 0.00 | 85 | 1019.9 |
| 20260830132832 | 57 | 194 | 3.0 | 3.0 | 0.00 | 0.00 | 0.00 | 86 | 1019.7 |
| 20260830132328 | 57 | 201 | 2.0 | 2.0 | 0.00 | 0.00 | 0.00 | 86 | 1020.0 |
| 20260830131827 | 57 | 153 | 4.0 | 6.0 | 0.00 | 0.00 | 0.00 | 86 | 1019.9 |
| 20260830131321 | 57 | 162 | 5.0 | 6.0 | 0.00 | 0.00 | 0.00 | 86 | 1019.6 |
| 20260830130816 | 57 | 121 | 5.0 | 7.0 | 0.00 | 0.00 | 0.00 | 86 | 1019.8 |
| 20260830130312 | 57 | 196 | 5.0 | 7.0 | 0.00 | 0.00 | 0.00 | 86 | 1019.7 |
| 20260830125810 | 57 | 192 | 1.0 | 1.0 | 0.00 | 0.00 | 0.00 | 86 | 1019.8 |
| 20260830125307 | 57 | 206 | 6.0 | 7.0 | 0.00 | 0.00 | 0.00 | 86 | 1019.8 |
| 20260830124803 | 57 | 136 | 2.0 | 2.0 | 0.00 | 0.00 | 0.00 | 86 | 1019.8 |
| 20260830124259 | 57 | 120 | 3.0 | 3.0 | 0.00 | 0.00 | 0.00 | 86 | 1019.8 |
| 20260830123756 | 57 | 152 | 1.0 | 1.0 | 0.00 | 0.00 | 0.00 | 86 | 1020.0 |
| 20260830123251 | 57 | 114 | 3.0 | 3.0 | 0.00 | 0.00 | 0.00 | 86 | 1019.7 |
| 20260830122749 | 57 | 162 | 5.0 | 5.0 | 0.00 | 0.00 | 0.00 | 86 | 1019.9 |
| 20260830122244 | 57 | 88 | 5.0 | 6.0 | 0.00 | 0.00 | 0.00 | 86 | 1019.9 |
| 20260830121739 | 57 | 136 | 2.0 | 2.0 | 0.00 | 0.00 | 0.00 | 86 | 1019.8 |
| 20260830121238 | 57 | 105 | 4.0 | 5.0 | 0.00 | 0.00 | 0.00 | 86 | 1019.9 |
| 20260830120734 | 57 | 132 | 1.0 | 2.0 | 0.00 | 0.00 | 0.00 | 86 | 1019.9 |
| 20260830120230 | 57 | 91 | 2.0 | 2.0 | 0.00 | 0.00 | 0.00 | 86 | 1020.0 |
| 20260830115726 | 57 | 140 | 2.0 | 2.0 | 0.00 | 0.00 | 0.00 | 86 | 1019.8 |
| 20260830115227 | 57 | 126 | 3.0 | 3.0 | 0.00 | 0.00 | 0.00 | 86 | 1019.9 |
| 20260830114724 | 57 | 113 | 2.0 | 2.0 | 0.00 | 0.00 | 0.00 | 86 | 1019.9 |
| 20260830114218 | 57 | 146 | 2.0 | 2.0 | 0.00 | 0.00 | 0.00 | 86 | 1019.8 |
| 20260830113713 | 57 | 83 | 1.0 | 2.0 | 0.00 | 0.00 | 0.00 | 85 | 1019.8 |
| 20260830113208 | 57 | 112 | 3.0 | 3.0 | 0.00 | 0.00 | 0.00 | 85 | 1020.0 |
| 20260830112704 | 57 | 153 | 2.0 | 2.0 | 0.00 | 0.00 | 0.00 | 85 | 1019.9 |
| 20260830112200 | 58 | 88 | 2.0 | 2.0 | 0.00 | 0.00 | 0.00 | 84 | 1019.8 |
| 20260830111656 | 58 | 32 | 1.0 | 2.0 | 0.00 | 0.00 | 0.00 | 84 | 1019.7 |
| 20260830111151 | 58 | 70 | 0.0 | 1.0 | 0.00 | 0.00 | 0.00 | 84 | 1019.9 |
| 20260830110645 | 58 | 126 | 2.0 | 3.0 | 0.00 | 0.00 | 0.00 | 84 | 1019.7 |
| 20260830110141 | 58 | 108 | 2.0 | 3.0 | 0.00 | 0.00 | 0.00 | 84 | 1019.7 |
| 20260830105636 | 58 | 87 | 4.0 | 5.0 | 0.00 | 0.00 | 0.00 | 83 | 1019.8 |
| 20260830105132 | 58 | 118 | 4.0 | 5.0 | 0.00 | 0.00 | 0.00 | 83 | 1019.5 |
| 20260830104628 | 58 | 126 | 3.0 | 5.0 | 0.00 | 0.00 | 0.00 | 83 | 1019.7 |